Newcastle, WY

11:55 AM MDT on June 23, 2017 (GMT -0600)
Mondell

Weather History for KECS - November, 2013

Change the Weather History Date:

Monday, November 11, 2013

  Actual Average (KCUT) Record (KCUT)
Temperature  
Mean Temperature 30 °F -  
Max Temperature 37 °F 44 °F 66 °F (1999)
Min Temperature 23 °F 19 °F -10 °F (1986)
Degree Days  
Heating Degree Days 35    
Moisture  
Dew Point 25 °F    
Average Humidity 91    
Maximum Humidity 100    
Minimum Humidity 75    
Precipitation  
Precipitation 0.00 in - - ()
Sea Level Pressure  
Sea Level Pressure 30.43 in    
Wind  
Wind Speed 4 mph (SSE)    
Max Wind Speed 13 mph    
Max Gust Speed -    
Visibility 8 miles    
Events Snow    
Averages and records for this station are not official NWS values.
T = Trace of Precipitation, MM = Missing Value Source: NWS Daily Summary

Daily Weather History Graph

Daily Weather History Graph

Search for Another Location

Airport or City:

Trip Planner

Search our weather history database for the weather conditions in past years. The results will help you decide how hot, cold, wet, or windy it might be!

Date:

Astronomy

Nov. 11, 2013 Rise Set
Actual Time 6:47 AM MST 4:35 PM MST
Civil Twilight 6:16 AM MST 5:05 PM MST
Nautical Twilight 5:41 AM MST 5:40 PM MST
Astronomical Twilight 5:07 AM MST 6:14 PM MST
Moon 1:28 PM MST (11/11) 12:22 AM MST (11/11)
Length of Visible Light 10h 49m
Length of Day
9h 47m
Waxing Gibbous, 67% of the Moon is Illuminated
Nov 11
Waxing Gibbous
Nov 17
Full
Nov 25
Last Quarter
Dec 2
New
Dec 9
First Quarter

Hourly Weather History & Observations

Time (MST) Temp. Windchill Dew Point Humidity Pressure Visibility Wind Dir Wind Speed Gust Speed Precip Events Conditions
12:15 AM 37.4 °F 34.9 °F 30.2 °F 75% 30.13 in 10.0 mi NW 3.5 mph - N/A   Clear
12:35 AM 35.6 °F 32.8 °F 32.0 °F 87% 30.15 in 10.0 mi West 3.5 mph - N/A   Scattered Clouds
12:55 AM 35.6 °F - 32.0 °F 87% 30.15 in 10.0 mi Calm Calm - N/A   Scattered Clouds
1:15 AM 33.8 °F - 30.2 °F 87% 30.16 in 10.0 mi Calm Calm - N/A   Clear
1:35 AM 32.0 °F - 30.2 °F 93% 30.17 in 10.0 mi Calm Calm - N/A   Clear
1:55 AM 32.0 °F - 30.2 °F 93% 30.18 in 10.0 mi Calm Calm - N/A   Clear
2:15 AM 32.0 °F - 30.2 °F 93% 30.19 in 10.0 mi Calm Calm - N/A   Clear
2:35 AM 32.0 °F - 30.2 °F 93% 30.19 in 10.0 mi Calm Calm - N/A   Clear
2:55 AM 30.2 °F 25.4 °F 28.4 °F 93% 30.21 in 10.0 mi SW 4.6 mph - N/A   Clear
3:15 AM 30.2 °F - 28.4 °F 93% 30.21 in 10.0 mi Calm Calm - N/A   Clear
3:35 AM 30.2 °F - 28.4 °F 93% 30.23 in 10.0 mi Calm Calm - N/A   Clear
3:55 AM 30.2 °F - 28.4 °F 93% 30.24 in 10.0 mi Calm Calm - N/A   Clear
4:15 AM 30.2 °F - 28.4 °F 93% 30.25 in 7.0 mi Calm Calm - N/A   Scattered Clouds
4:35 AM 30.2 °F 26.7 °F 26.6 °F 86% 30.26 in 10.0 mi South 3.5 mph - N/A   Mostly Cloudy
4:55 AM 30.2 °F 25.4 °F 28.4 °F 93% 30.28 in 10.0 mi SSE 4.6 mph - N/A   Overcast
5:15 AM 30.2 °F 25.4 °F 28.4 °F 93% 30.29 in 10.0 mi South 4.6 mph - N/A   Overcast
5:35 AM 30.2 °F 26.7 °F 28.4 °F 93% 30.30 in 10.0 mi SSW 3.5 mph - N/A   Overcast
5:55 AM 30.2 °F 23.4 °F 26.6 °F 86% 30.30 in 10.0 mi South 6.9 mph - N/A   Overcast
6:15 AM 30.2 °F 25.4 °F 26.6 °F 86% 30.31 in 10.0 mi South 4.6 mph - N/A   Overcast
6:35 AM 30.2 °F 24.3 °F 28.4 °F 93% 30.33 in 10.0 mi South 5.8 mph - N/A   Overcast
6:55 AM 30.2 °F 23.4 °F 28.4 °F 93% 30.34 in 7.0 mi SSE 6.9 mph - N/A   Overcast
7:15 AM 30.2 °F 26.7 °F 26.6 °F 86% 30.35 in 10.0 mi South 3.5 mph - N/A   Overcast
7:35 AM 30.2 °F 25.4 °F 26.6 °F 86% 30.36 in 10.0 mi South 4.6 mph - N/A   Overcast
7:55 AM 30.2 °F 26.7 °F 26.6 °F 86% 30.37 in 10.0 mi West 3.5 mph - N/A   Overcast
8:15 AM 28.4 °F 24.6 °F 24.8 °F 86% 30.38 in 10.0 mi SW 3.5 mph - N/A   Overcast
8:35 AM 28.4 °F - 24.8 °F 86% 30.39 in 10.0 mi Calm Calm - N/A   Overcast
8:55 AM 28.4 °F 19.1 °F 26.6 °F 93% 30.41 in 0.8 mi SSE 10.4 mph - N/A   Overcast
9:15 AM 26.6 °F 16.2 °F 26.6 °F 100% 30.41 in 1.0 mi SSE 11.5 mph - N/A   Overcast
9:35 AM 26.6 °F 15.7 °F 26.6 °F 100% 30.42 in 0.8 mi ESE 12.7 mph - N/A   Overcast
9:55 AM 26.6 °F 15.7 °F 26.6 °F 100% 30.43 in 1.0 mi SE 12.7 mph - N/A   Overcast
10:15 AM 26.6 °F 16.2 °F 26.6 °F 100% 30.44 in 1.0 mi SE 11.5 mph - N/A   Overcast
10:35 AM 26.6 °F 16.2 °F 24.8 °F 93% 30.45 in 1.2 mi SSE 11.5 mph - N/A Snow Light Snow
10:55 AM 24.8 °F 14.6 °F 24.8 °F 100% 30.46 in 1.5 mi SSE 10.4 mph - N/A Snow Light Snow
11:15 AM 24.8 °F 14.6 °F 23.0 °F 93% 30.46 in 2.5 mi SE 10.4 mph - N/A Snow Light Snow
11:35 AM 24.8 °F - 23.0 °F 93% 30.46 in 2.0 mi North - - N/A Snow Light Snow
11:55 AM 24.8 °F 14.6 °F 23.0 °F 93% 30.45 in 2.0 mi SSE 10.4 mph - N/A Snow Light Snow
12:15 PM 24.8 °F 16.1 °F 23.0 °F 93% 30.46 in 2.0 mi SSE 8.1 mph - N/A Snow Light Snow
12:35 PM 26.6 °F 19.1 °F 23.0 °F 86% 30.47 in 5.0 mi SSE 6.9 mph - N/A Snow Light Snow
12:55 PM 24.8 °F 16.1 °F 23.0 °F 93% 30.46 in 5.0 mi SSE 8.1 mph - N/A Snow Light Snow
1:15 PM 26.6 °F 19.1 °F 23.0 °F 86% 30.46 in 5.0 mi SSE 6.9 mph - N/A   Overcast
1:35 PM 24.8 °F 16.9 °F 23.0 °F 93% 30.46 in 10.0 mi SSE 6.9 mph - N/A   Overcast
1:55 PM 24.8 °F 16.9 °F 23.0 °F 93% 30.47 in 10.0 mi SSE 6.9 mph - N/A   Overcast
2:15 PM 26.6 °F 20.0 °F 23.0 °F 86% 30.48 in 7.0 mi SE 5.8 mph - N/A Snow Light Snow
2:35 PM 26.6 °F 21.2 °F 23.0 °F 86% 30.48 in 3.0 mi SSE 4.6 mph - N/A Snow Light Snow
2:55 PM 26.6 °F 22.6 °F 23.0 °F 86% 30.49 in 4.0 mi SSE 3.5 mph - N/A Snow Light Snow
3:15 PM 26.6 °F 21.2 °F 23.0 °F 86% 30.49 in 4.0 mi South 4.6 mph - N/A Snow Light Snow
3:35 PM 26.6 °F 20.0 °F 23.0 °F 86% 30.49 in 7.0 mi South 5.8 mph - N/A   Overcast
3:55 PM 26.6 °F 21.2 °F 23.0 °F 86% 30.50 in 10.0 mi SSE 4.6 mph - N/A   Overcast
4:15 PM 26.6 °F - 23.0 °F 86% 30.51 in 10.0 mi Calm Calm - N/A   Overcast
4:35 PM 26.6 °F 22.6 °F 23.0 °F 86% 30.52 in 10.0 mi SSE 3.5 mph - N/A   Overcast
4:55 PM 26.6 °F 21.2 °F 23.0 °F 86% 30.53 in 10.0 mi SSE 4.6 mph - N/A   Overcast
5:15 PM 26.6 °F 21.2 °F 23.0 °F 86% 30.54 in 10.0 mi South 4.6 mph - N/A   Overcast
5:35 PM 26.6 °F 21.2 °F 23.0 °F 86% 30.54 in 10.0 mi SSE 4.6 mph - N/A   Overcast
5:55 PM 24.8 °F 20.5 °F 23.0 °F 93% 30.55 in 10.0 mi SSE 3.5 mph - N/A   Overcast
6:15 PM 24.8 °F - 23.0 °F 93% 30.55 in 10.0 mi North - - N/A   Overcast
6:35 PM 24.8 °F 17.9 °F 23.0 °F 93% 30.56 in 10.0 mi SSE 5.8 mph - N/A   Overcast
6:55 PM 24.8 °F - 23.0 °F 93% 30.56 in 10.0 mi North - - N/A   Overcast
7:15 PM 24.8 °F - 23.0 °F 93% 30.57 in 10.0 mi North - - N/A   Overcast
7:35 PM 24.8 °F - 23.0 °F 93% 30.58 in 10.0 mi North - - N/A   Overcast
7:55 PM 24.8 °F - 23.0 °F 93% 30.58 in 10.0 mi North - - N/A   Overcast
8:15 PM 23.0 °F - 23.0 °F 100% 30.59 in 10.0 mi Calm Calm - N/A   Overcast
8:35 PM 23.0 °F - 23.0 °F 100% 30.59 in 10.0 mi Calm Calm - N/A   Overcast
8:55 PM 23.0 °F 17.0 °F 23.0 °F 100% 30.60 in 10.0 mi South 4.6 mph - N/A   Overcast
9:15 PM 24.8 °F 20.5 °F 23.0 °F 93% 30.60 in 10.0 mi South 3.5 mph - N/A   Overcast
9:35 PM 24.8 °F 19.1 °F 23.0 °F 93% 30.60 in 10.0 mi SSE 4.6 mph - N/A   Overcast
9:55 PM 24.8 °F - 23.0 °F 93% 30.60 in 7.0 mi Calm Calm - N/A   Overcast
10:15 PM 24.8 °F 20.5 °F 23.0 °F 93% 30.61 in 7.0 mi SE 3.5 mph - N/A   Overcast
10:35 PM 24.8 °F 20.5 °F 23.0 °F 93% 30.61 in 7.0 mi SE 3.5 mph - N/A   Overcast
10:55 PM 24.8 °F - 23.0 °F 93% 30.61 in 10.0 mi Calm Calm - N/A   Overcast
11:15 PM 24.8 °F 20.5 °F 23.0 °F 93% 30.61 in 10.0 mi SSE 3.5 mph - N/A   Overcast
11:35 PM 24.8 °F 17.9 °F 23.0 °F 93% 30.61 in 7.0 mi SSE 5.8 mph - N/A   Overcast
11:55 PM 24.8 °F - 23.0 °F 93% 30.60 in 7.0 mi Calm Calm - N/A   Overcast